Time,TemperatureF,DewpointF,PressureIn,WindDirection,WindDirectionDegrees,WindSpeedMPH,WindSpeedGustMPH,Humidity,HourlyPrecipIn,Conditions,Clouds,dailyrainin,SoftwareType,DateUTC
2013-03-28 00:02:00,31.0,23.0,30.28,WNW,294,0.0,2.0,73,0.00,,,0.00,,2013-03-28 04:02:00,
2013-03-28 00:12:00,31.0,23.0,30.28,WNW,294,0.0,2.0,73,0.00,,,0.00,,2013-03-28 04:12:00,
2013-03-28 00:23:00,31.0,23.0,30.27,WNW,294,0.0,1.0,73,0.00,,,0.00,,2013-03-28 04:23:00,
2013-03-28 00:32:00,30.0,23.0,30.28,WNW,294,0.0,1.0,75,0.00,,,0.00,,2013-03-28 04:32:00,
2013-03-28 00:42:00,30.0,23.0,30.28,WNW,294,0.0,1.0,75,0.00,,,0.00,,2013-03-28 04:42:00,
2013-03-28 00:52:00,30.0,23.0,30.28,WNW,294,0.0,2.0,74,0.00,,,0.00,,2013-03-28 04:52:00,
2013-03-28 01:02:00,30.0,23.0,30.28,WNW,294,2.0,3.0,74,0.00,,,0.00,,2013-03-28 05:02:00,
2013-03-28 01:12:00,30.0,23.0,30.28,WNW,294,2.0,3.0,74,0.00,,,0.00,,2013-03-28 05:12:00,
2013-03-28 01:22:00,30.0,23.0,30.28,WNW,290,1.0,3.0,74,0.00,,,0.00,,2013-03-28 05:22:00,
2013-03-28 01:32:00,30.0,23.0,30.27,WNW,290,2.0,2.0,74,0.00,,,0.00,,2013-03-28 05:32:00,
2013-03-28 01:42:00,30.0,23.0,30.27,WNW,290,2.0,2.0,74,0.00,,,0.00,,2013-03-28 05:42:00,
2013-03-28 01:52:00,30.0,23.0,30.27,WNW,290,1.0,3.0,74,0.00,,,0.00,,2013-03-28 05:52:00,
2013-03-28 02:02:00,30.0,23.0,30.27,WNW,290,1.0,2.0,74,0.00,,,0.00,,2013-03-28 06:02:00,
2013-03-28 02:12:00,30.0,23.0,30.27,WNW,290,1.0,2.0,74,0.00,,,0.00,,2013-03-28 06:12:00,
2013-03-28 02:22:00,30.0,23.0,30.28,WNW,290,2.0,4.0,74,0.00,,,0.00,,2013-03-28 06:22:00,
2013-03-28 02:32:00,30.0,22.0,30.28,West,263,4.0,5.0,73,0.00,,,0.00,,2013-03-28 06:32:00,
2013-03-28 02:42:00,30.0,22.0,30.28,West,263,4.0,5.0,73,0.00,,,0.00,,2013-03-28 06:42:00,
2013-03-28 02:52:00,30.0,23.0,30.28,West,270,4.0,6.0,74,0.00,,,0.00,,2013-03-28 06:52:00,
2013-03-28 03:02:00,30.0,23.0,30.28,West,266,0.0,3.0,74,0.00,,,0.00,,2013-03-28 07:02:00,
2013-03-28 03:12:00,30.0,23.0,30.28,West,266,0.0,3.0,74,0.00,,,0.00,,2013-03-28 07:12:00,
2013-03-28 03:22:00,30.0,23.0,30.28,West,266,1.0,2.0,74,0.00,,,0.00,,2013-03-28 07:22:00,
2013-03-28 03:32:00,30.0,22.0,30.28,West,266,2.0,3.0,73,0.00,,,0.00,,2013-03-28 07:32:00,
2013-03-28 03:42:00,30.0,22.0,30.28,West,266,2.0,3.0,73,0.00,,,0.00,,2013-03-28 07:42:00,
2013-03-28 03:52:00,29.0,21.0,30.27,West,259,3.0,4.0,73,0.00,,,0.00,,2013-03-28 07:52:00,
2013-03-28 04:02:00,30.0,22.0,30.27,West,267,1.0,2.0,73,0.00,,,0.00,,2013-03-28 08:02:00,
2013-03-28 04:12:00,30.0,22.0,30.27,West,267,1.0,2.0,73,0.00,,,0.00,,2013-03-28 08:12:00,
2013-03-28 04:21:00,30.0,22.0,30.27,West,267,0.0,3.0,73,0.00,,,0.00,,2013-03-28 08:21:00,
2013-03-28 04:32:00,29.0,21.0,30.27,West,267,1.0,2.0,73,0.00,,,0.00,,2013-03-28 08:32:00,
2013-03-28 04:42:00,29.0,21.0,30.27,West,267,1.0,2.0,73,0.00,,,0.00,,2013-03-28 08:42:00,
2013-03-28 04:52:00,30.0,22.0,30.27,West,267,1.0,3.0,72,0.00,,,0.00,,2013-03-28 08:52:00,
2013-03-28 05:02:00,29.0,21.0,30.27,West,267,1.0,3.0,73,0.00,,,0.00,,2013-03-28 09:02:00,
2013-03-28 05:12:00,29.0,21.0,30.27,West,267,1.0,3.0,73,0.00,,,0.00,,2013-03-28 09:12:00,
2013-03-28 05:22:00,29.0,22.0,30.27,West,267,1.0,2.0,74,0.00,,,0.00,,2013-03-28 09:22:00,
2013-03-28 05:32:00,29.0,22.0,30.27,West,267,2.0,3.0,75,0.00,,,0.00,,2013-03-28 09:32:00,
2013-03-28 05:42:00,29.0,22.0,30.27,West,267,2.0,3.0,75,0.00,,,0.00,,2013-03-28 09:42:00,
2013-03-28 05:52:00,29.0,22.0,30.27,West,267,2.0,3.0,74,0.00,,,0.00,,2013-03-28 09:52:00,
2013-03-28 06:03:00,29.0,22.0,30.27,West,267,3.0,4.0,74,0.00,,,0.00,,2013-03-28 10:03:00,
2013-03-28 06:12:00,29.0,22.0,30.27,West,267,3.0,4.0,74,0.00,,,0.00,,2013-03-28 10:12:00,
2013-03-28 06:22:00,29.0,22.0,30.27,West,267,2.0,4.0,75,0.00,,,0.00,,2013-03-28 10:22:00,
2013-03-28 06:33:00,28.0,21.0,30.27,West,267,2.0,3.0,75,0.00,,,0.00,,2013-03-28 10:33:00,
2013-03-28 06:42:00,28.0,21.0,30.27,West,267,2.0,3.0,75,0.00,,,0.00,,2013-03-28 10:42:00,
2013-03-28 06:53:00,28.0,22.0,30.28,West,267,2.0,3.0,77,0.00,,,0.00,,2013-03-28 10:53:00,
2013-03-28 07:02:00,28.0,22.0,30.28,West,267,1.0,2.0,77,0.00,,,0.00,,2013-03-28 11:02:00,
2013-03-28 07:12:00,28.0,22.0,30.28,West,267,1.0,2.0,77,0.00,,,0.00,,2013-03-28 11:12:00,
2013-03-28 07:23:00,27.0,21.0,30.28,West,267,1.0,2.0,77,0.00,,,0.00,,2013-03-28 11:23:00,
2013-03-28 07:32:00,28.0,22.0,30.29,West,267,2.0,4.0,77,0.00,,,0.00,,2013-03-28 11:32:00,
2013-03-28 07:42:00,28.0,22.0,30.29,West,267,2.0,4.0,77,0.00,,,0.00,,2013-03-28 11:42:00,
2013-03-28 07:52:00,28.0,21.0,30.29,West,267,2.0,4.0,76,0.00,,,0.00,,2013-03-28 11:52:00,
2013-03-28 08:02:00,28.0,21.0,30.29,West,267,2.0,3.0,76,0.00,,,0.00,,2013-03-28 12:02:00,
2013-03-28 08:12:00,28.0,21.0,30.29,West,267,2.0,3.0,76,0.00,,,0.00,,2013-03-28 12:12:00,
2013-03-28 08:22:00,29.0,22.0,30.30,West,267,2.0,3.0,76,0.00,,,0.00,,2013-03-28 12:22:00,
2013-03-28 08:32:00,29.0,22.0,30.30,West,266,3.0,4.0,74,0.00,,,0.00,,2013-03-28 12:32:00,
2013-03-28 08:42:00,29.0,22.0,30.30,West,266,3.0,4.0,74,0.00,,,0.00,,2013-03-28 12:42:00,
2013-03-28 08:52:00,30.0,23.0,30.30,West,262,2.0,4.0,74,0.00,,,0.00,,2013-03-28 12:52:00,
2013-03-28 09:02:00,31.0,24.0,30.30,West,261,4.0,5.0,74,0.00,,,0.00,,2013-03-28 13:02:00,
2013-03-28 09:12:00,31.0,24.0,30.30,West,261,4.0,5.0,74,0.00,,,0.00,,2013-03-28 13:12:00,
2013-03-28 09:22:00,32.0,25.0,30.30,WSW,258,3.0,6.0,74,0.00,,,0.00,,2013-03-28 13:22:00,
2013-03-28 09:32:00,34.0,26.0,30.30,West,273,4.0,10.0,71,0.00,,,0.00,,2013-03-28 13:32:00,
2013-03-28 09:42:00,34.0,26.0,30.30,West,273,4.0,10.0,71,0.00,,,0.00,,2013-03-28 13:42:00,
2013-03-28 09:52:00,35.0,26.0,30.30,West,261,8.0,11.0,69,0.00,,,0.00,,2013-03-28 13:52:00,
2013-03-28 10:02:00,36.0,27.0,30.31,WNW,300,6.0,12.0,69,0.00,,,0.00,,2013-03-28 14:02:00,
2013-03-28 10:12:00,36.0,27.0,30.31,WNW,300,6.0,12.0,69,0.00,,,0.00,,2013-03-28 14:12:00,
2013-03-28 10:22:00,36.0,26.0,30.31,WNW,283,5.0,10.0,67,0.00,,,0.00,,2013-03-28 14:22:00,
2013-03-28 10:32:00,37.0,27.0,30.31,WNW,294,7.0,10.0,66,0.00,,,0.00,,2013-03-28 14:32:00,
2013-03-28 10:42:00,37.0,27.0,30.31,WNW,294,7.0,10.0,66,0.00,,,0.00,,2013-03-28 14:42:00,
2013-03-28 10:52:00,38.0,27.0,30.31,NW,304,6.0,10.0,65,0.00,,,0.00,,2013-03-28 14:52:00,
2013-03-28 11:02:00,39.0,27.0,30.31,WNW,283,6.0,10.0,63,0.00,,,0.00,,2013-03-28 15:02:00,
2013-03-28 11:12:00,39.0,27.0,30.31,WNW,283,6.0,10.0,63,0.00,,,0.00,,2013-03-28 15:12:00,
2013-03-28 11:22:00,39.0,26.0,30.31,WNW,296,5.0,10.0,60,0.00,,,0.00,,2013-03-28 15:22:00,
2013-03-28 11:33:00,40.0,27.0,30.32,WNW,290,7.0,9.0,59,0.00,,,0.00,,2013-03-28 15:33:00,
2013-03-28 11:43:00,40.0,27.0,30.32,WNW,290,7.0,9.0,59,0.00,,,0.00,,2013-03-28 15:43:00,
2013-03-28 11:53:00,41.0,27.0,30.32,SW,229,7.0,13.0,57,0.00,,,0.00,,2013-03-28 15:53:00,
2013-03-28 12:02:00,41.0,26.0,30.32,West,264,6.0,9.0,55,0.00,,,0.00,,2013-03-28 16:02:00,
2013-03-28 12:12:00,41.0,26.0,30.32,West,264,6.0,9.0,55,0.00,,,0.00,,2013-03-28 16:12:00,
2013-03-28 12:23:00,42.0,26.0,30.31,West,279,6.0,14.0,52,0.00,,,0.00,,2013-03-28 16:23:00,
2013-03-28 12:32:00,43.0,26.0,30.31,West,261,6.0,10.0,51,0.00,,,0.00,,2013-03-28 16:32:00,
2013-03-28 12:42:00,43.0,26.0,30.31,West,261,6.0,10.0,51,0.00,,,0.00,,2013-03-28 16:42:00,
2013-03-28 12:52:00,43.0,25.0,30.31,SW,233,6.0,12.0,49,0.00,,,0.00,,2013-03-28 16:52:00,
2013-03-28 13:02:00,43.0,25.0,30.31,WNW,298,9.0,14.0,48,0.00,,,0.00,,2013-03-28 17:02:00,
2013-03-28 13:12:00,43.0,25.0,30.31,WNW,298,9.0,14.0,48,0.00,,,0.00,,2013-03-28 17:12:00,
2013-03-28 13:22:00,44.0,27.0,30.31,WNW,296,5.0,11.0,51,0.00,,,0.00,,2013-03-28 17:22:00,
2013-03-28 13:32:00,44.0,25.0,30.30,West,275,3.0,11.0,46,0.00,,,0.00,,2013-03-28 17:32:00,
2013-03-28 13:42:00,44.0,25.0,30.30,West,275,3.0,11.0,46,0.00,,,0.00,,2013-03-28 17:42:00,
2013-03-28 13:52:00,44.0,23.0,30.30,North,355,9.0,13.0,44,0.00,,,0.00,,2013-03-28 17:52:00,
2013-03-28 14:02:00,45.0,25.0,30.30,WSW,238,6.0,15.0,45,0.00,,,0.00,,2013-03-28 18:02:00,
2013-03-28 14:12:00,45.0,25.0,30.30,WSW,238,6.0,15.0,45,0.00,,,0.00,,2013-03-28 18:12:00,
2013-03-28 14:22:00,45.0,24.0,30.30,West,269,9.0,14.0,43,0.00,,,0.00,,2013-03-28 18:22:00,
2013-03-28 14:32:00,46.0,26.0,30.30,West,264,7.0,14.0,45,0.00,,,0.00,,2013-03-28 18:32:00,
2013-03-28 14:42:00,46.0,26.0,30.30,West,264,7.0,14.0,45,0.00,,,0.00,,2013-03-28 18:42:00,
2013-03-28 14:52:00,46.0,25.0,30.29,NW,320,6.0,13.0,43,0.00,,,0.00,,2013-03-28 18:52:00,
2013-03-28 15:02:00,47.0,26.0,30.29,WSW,246,8.0,14.0,44,0.00,,,0.00,,2013-03-28 19:02:00,
2013-03-28 15:12:00,47.0,26.0,30.29,WSW,246,8.0,14.0,44,0.00,,,0.00,,2013-03-28 19:12:00,
2013-03-28 15:22:00,46.0,26.0,30.29,NNW,340,6.0,12.0,46,0.00,,,0.00,,2013-03-28 19:22:00,
2013-03-28 15:33:00,47.0,26.0,30.28,West,267,5.0,12.0,43,0.00,,,0.00,,2013-03-28 19:33:00,
2013-03-28 15:42:00,47.0,26.0,30.28,West,267,5.0,12.0,43,0.00,,,0.00,,2013-03-28 19:42:00,
2013-03-28 15:52:00,48.0,27.0,30.28,NW,313,7.0,12.0,43,0.00,,,0.00,,2013-03-28 19:52:00,
2013-03-28 16:03:00,47.0,26.0,30.27,West,280,7.0,15.0,43,0.00,,,0.00,,2013-03-28 20:03:00,
2013-03-28 16:12:00,47.0,26.0,30.27,West,280,7.0,15.0,43,0.00,,,0.00,,2013-03-28 20:12:00,
2013-03-28 16:22:00,48.0,26.0,30.27,WNW,301,7.0,10.0,42,0.00,,,0.00,,2013-03-28 20:22:00,
2013-03-28 16:32:00,47.0,25.0,30.27,NNW,340,4.0,14.0,42,0.00,,,0.00,,2013-03-28 20:32:00,
2013-03-28 16:42:00,47.0,25.0,30.27,NNW,340,4.0,14.0,42,0.00,,,0.00,,2013-03-28 20:42:00,
2013-03-28 16:53:00,48.0,27.0,30.27,NNW,334,6.0,10.0,43,0.00,,,0.00,,2013-03-28 20:53:00,
2013-03-28 17:02:00,49.0,27.0,30.26,WNW,299,7.0,12.0,42,0.00,,,0.00,,2013-03-28 21:02:00,
2013-03-28 17:12:00,49.0,27.0,30.26,WNW,299,7.0,12.0,42,0.00,,,0.00,,2013-03-28 21:12:00,
2013-03-28 17:22:00,48.0,26.0,30.26,West,279,8.0,14.0,42,0.00,,,0.00,,2013-03-28 21:22:00,
2013-03-28 17:33:00,49.0,26.0,30.25,NNW,331,6.0,9.0,40,0.00,,,0.00,,2013-03-28 21:33:00,
2013-03-28 17:43:00,49.0,26.0,30.25,NNW,331,6.0,9.0,40,0.00,,,0.00,,2013-03-28 21:43:00,
2013-03-28 17:53:00,48.0,25.0,30.25,NW,309,6.0,12.0,40,0.00,,,0.00,,2013-03-28 21:53:00,
2013-03-28 18:03:00,48.0,25.0,30.25,West,263,6.0,10.0,41,0.00,,,0.00,,2013-03-28 22:03:00,
2013-03-28 18:13:00,48.0,25.0,30.25,West,263,6.0,10.0,41,0.00,,,0.00,,2013-03-28 22:13:00,
2013-03-28 18:23:00,48.0,25.0,30.25,West,279,6.0,12.0,40,0.00,,,0.00,,2013-03-28 22:23:00,
2013-03-28 18:32:00,48.0,25.0,30.25,NW,318,8.0,13.0,41,0.00,,,0.00,,2013-03-28 22:32:00,
2013-03-28 18:42:00,48.0,25.0,30.25,NW,318,8.0,13.0,41,0.00,,,0.00,,2013-03-28 22:42:00,
2013-03-28 18:52:00,48.0,25.0,30.25,NNW,333,5.0,9.0,40,0.00,,,0.00,,2013-03-28 22:52:00,
2013-03-28 19:03:00,48.0,25.0,30.25,NW,317,6.0,11.0,40,0.00,,,0.00,,2013-03-28 23:03:00,
2013-03-28 19:12:00,48.0,25.0,30.25,NW,317,6.0,11.0,40,0.00,,,0.00,,2013-03-28 23:12:00,
2013-03-28 19:22:00,47.0,25.0,30.25,WNW,295,6.0,8.0,42,0.00,,,0.00,,2013-03-28 23:22:00,
2013-03-28 19:32:00,46.0,25.0,30.26,West,264,5.0,10.0,43,0.00,,,0.00,,2013-03-28 23:32:00,
2013-03-28 19:42:00,46.0,25.0,30.26,West,264,5.0,10.0,43,0.00,,,0.00,,2013-03-28 23:42:00,
2013-03-28 19:53:00,46.0,25.0,30.26,West,279,5.0,8.0,43,0.00,,,0.00,,2013-03-28 23:53:00,
2013-03-28 20:02:00,45.0,23.0,30.26,WNW,299,5.0,10.0,42,0.00,,,0.00,,2013-03-29 00:02:00,
2013-03-28 20:12:00,45.0,23.0,30.26,WNW,299,5.0,10.0,42,0.00,,,0.00,,2013-03-29 00:12:00,
2013-03-28 20:22:00,45.0,25.0,30.26,NNW,331,4.0,8.0,46,0.00,,,0.00,,2013-03-29 00:22:00,
2013-03-28 20:32:00,44.0,26.0,30.27,NNW,327,4.0,10.0,48,0.00,,,0.00,,2013-03-29 00:32:00,
2013-03-28 20:42:00,44.0,26.0,30.27,NNW,327,4.0,10.0,48,0.00,,,0.00,,2013-03-29 00:42:00,
2013-03-28 20:52:00,42.0,26.0,30.27,NNW,335,2.0,5.0,53,0.00,,,0.00,,2013-03-29 00:52:00,
2013-03-28 21:02:00,42.0,28.0,30.27,NNW,327,0.0,2.0,57,0.00,,,0.00,,2013-03-29 01:02:00,
2013-03-28 21:12:00,42.0,28.0,30.27,NNW,327,0.0,2.0,57,0.00,,,0.00,,2013-03-29 01:12:00,
2013-03-28 21:22:00,41.0,27.0,30.27,NNW,327,0.0,1.0,57,0.00,,,0.00,,2013-03-29 01:22:00,
2013-03-28 21:42:00,40.0,25.0,30.27,NNW,327,0.0,0.0,54,0.00,,,0.00,,2013-03-29 01:42:00,
2013-03-28 21:52:00,40.0,24.0,30.27,NNW,327,0.0,0.0,53,0.00,,,0.00,,2013-03-29 01:52:00,
2013-03-28 22:02:00,39.0,24.0,30.27,NNW,327,0.0,1.0,54,0.00,,,0.00,,2013-03-29 02:02:00,
2013-03-28 22:12:00,39.0,24.0,30.27,NNW,327,0.0,1.0,54,0.00,,,0.00,,2013-03-29 02:12:00,
2013-03-28 22:22:00,39.0,27.0,30.28,NNW,327,0.0,1.0,62,0.00,,,0.00,,2013-03-29 02:22:00,
2013-03-28 22:32:00,37.0,24.0,30.29,SW,224,4.0,5.0,58,0.00,,,0.00,,2013-03-29 02:32:00,
2013-03-28 22:42:00,37.0,24.0,30.29,SW,224,4.0,5.0,58,0.00,,,0.00,,2013-03-29 02:42:00,
2013-03-28 22:53:00,38.0,25.0,30.29,SW,219,0.0,2.0,58,0.00,,,0.00,,2013-03-29 02:53:00,
2013-03-28 23:02:00,36.0,24.0,30.29,SSW,199,1.0,3.0,61,0.00,,,0.00,,2013-03-29 03:02:00,
2013-03-28 23:12:00,36.0,24.0,30.29,SSW,199,1.0,3.0,61,0.00,,,0.00,,2013-03-29 03:12:00,
2013-03-28 23:22:00,37.0,25.0,30.29,SSW,200,0.0,0.0,61,0.00,,,0.00,,2013-03-29 03:22:00,
2013-03-28 23:32:00,36.0,25.0,30.29,SSW,200,0.0,0.0,63,0.00,,,0.00,,2013-03-29 03:32:00,
2013-03-28 23:42:00,36.0,25.0,30.29,SSW,200,0.0,0.0,63,0.00,,,0.00,,2013-03-29 03:42:00,
2013-03-28 23:53:00,35.0,25.0,30.29,SSW,200,1.0,2.0,67,0.00,,,0.00,,2013-03-29 03:53:00,